Medicine Lodge, KS

10:41 AM CST on December 06, 2019 (GMT -0600)
Medicine Lodge

Weather History for KP28 - October, 2019

Change the Weather History Date:

Thursday, October 31, 2019

  Actual Average Record
Temperature  
Mean Temperature 34 °F 52 °F  
Max Temperature 53 °F 65 °F 89 °F (1938)
Min Temperature 15 °F 40 °F 13 °F (1993)
Degree Days  
Heating Degree Days 31 13  
Month to date heating degree days 391 237  
Since 1 July heating degree days 391 269  
Cooling Degree Days 0 0  
Month to date cooling degree days 23 38  
Year to date cooling degree days 1837 1769  
Moisture  
Dew Point 11 °F    
Average Humidity 53    
Maximum Humidity 91    
Minimum Humidity 14    
Precipitation  
Precipitation 0.00 in 0.08 in 2.11 in (1998)
Month to date precipitation 1.79 2.84  
Year to date precipitation 30.37 25.29  
Snow  
Snow 0.00 in 0.00 in - ()
Month to date snowfall T 0.0  
Since 1 July snowfall T 0.0  
Since 1 September snowfall T 0.0  
Snow Depth 0.00 in    
Sea Level Pressure  
Sea Level Pressure 30.35 in    
Wind  
Wind Speed 8 mph (West)    
Max Wind Speed 15 mph    
Max Gust Speed 24 mph    
T = Trace of Precipitation, MM = Missing Value Source: NWS Daily Summary

Daily Weather History Graph

Daily Weather History Graph

Search for Another Location

Airport or City:

Astronomy

Oct. 31, 2019 Rise Set
Actual Time 7:57 AM CDT 6:37 PM CDT
Civil Twilight 7:30 AM CDT 7:04 PM CDT
Nautical Twilight 6:59 AM CDT 7:35 PM CDT
Astronomical Twilight 6:29 AM CDT 8:05 PM CDT
Moon 11:44 AM CDT (10/31) 9:39 PM CDT (10/31)
Length of Visible Light 11h 33m
Length of Day
10h 39m
Waxing Crescent, 16% of the Moon is Illuminated
Oct 31
Waxing Crescent
Nov 4
First Quarter
Nov 12
Full
Nov 19
Last Quarter
Nov 26
New

Hourly Weather History & Observations

Time (CDT) Temp. Windchill Dew Point Humidity Pressure Visibility Wind Dir Wind Speed Gust Speed Precip Events Conditions
12:56 AM 19.9 °F 8.6 °F 17.1 °F 89% 30.40 in - WNW 10.4 mph - N/A   Unknown
1:56 AM 19.0 °F 12.3 °F 15.1 °F 85% 30.40 in - West 4.6 mph - N/A   Unknown
2:56 AM 18.0 °F 8.7 °F 14.0 °F 84% 30.40 in - West 6.9 mph - N/A   Unknown
3:56 AM 17.1 °F 7.6 °F 12.9 °F 84% 30.40 in - WNW 6.9 mph - N/A   Unknown
4:56 AM 16.0 °F 5.3 °F 10.9 °F 81% 30.40 in - WNW 8.1 mph - N/A   Unknown
6:56 AM 15.1 °F 6.4 °F 10.0 °F 80% 30.40 in - NW 5.8 mph - N/A   Unknown
7:56 AM 15.1 °F 6.4 °F 9.0 °F 77% 30.41 in - WNW 5.8 mph - N/A   Unknown
8:56 AM 18.0 °F 8.7 °F 10.9 °F 74% 30.42 in - WNW 6.9 mph - N/A   Unknown
9:56 AM 24.1 °F 15.2 °F 12.9 °F 62% 30.42 in - NW 8.1 mph - N/A   Unknown
10:56 AM 32.0 °F 24.2 °F 14.0 °F 48% 30.42 in - West 9.2 mph - N/A   Unknown
11:56 AM 36.0 °F 28.5 °F 12.0 °F 37% 30.41 in - WNW 10.4 mph - N/A   Unknown
1:56 PM 46.9 °F - 6.1 °F 19% 30.34 in - West 13.8 mph 19.6 mph N/A   Unknown
2:56 PM 48.9 °F - 5.0 °F 17% 30.31 in - West 10.4 mph - N/A   Unknown
3:56 PM 51.1 °F - 6.1 °F 16% 30.28 in - NW 10.4 mph - N/A   Unknown
4:56 PM 52.0 °F - 6.1 °F 16% 30.27 in - West 8.1 mph - N/A   Unknown
6:56 PM 46.0 °F 42.5 °F 8.1 °F 21% 30.27 in - South 6.9 mph - N/A   Unknown
9:56 PM 37.0 °F 30.4 °F 12.9 °F 37% 30.26 in - South 9.2 mph - N/A   Unknown
10:56 PM 35.1 °F 27.4 °F 15.1 °F 44% 30.25 in - South 10.4 mph - N/A   Unknown
11:56 PM 33.1 °F 26.9 °F 17.1 °F 52% 30.24 in - South 6.9 mph - N/A   Unknown